星链-37276(STARLINK-37276)

导读

STARLINK-37276(NORAD编号69258)是美国SpaceX公司星链(Starlink)星座的低轨互联网通信卫星,隶属于SpaceX打造的全球卫星互联网项目。星链项目旨在通过大规模低轨卫星组网,为全球提供低成本、高性能的宽带互联网接入服务。 作为星链星座的一员,该卫星运行在近地轨道,参与组网以实现全球范围的信号覆盖,支持包括偏远地区网络接入、移动场景联网等服务。它依托星链成熟的卫星平台设计,配合相控阵天线等技术,保障信号传输稳定性,助力星链系统持续扩展全球网络服务能力。

Basic Information
目录编号:
69258
目录名称:
STARLINK-37276
国际标识:
2026-117W
轨道中心:
EARTH
卫星名称:
星链-37276
卫星全名:
星链-37276(STARLINK-37276)
卫星状态:
在轨 (已飞行107 天)
发射日期:
2026-05-29 UTC
国别 :
美国 (US)
星等 :
--
This satellite is enrolled in the Space Conjunction Data Service (SCDS) and the current flight risk assessment level is: No High Risk
Orbit Information
数据来源 国际轨道数据
星历时间: 2026-09-13T09:58:32+0800
10小时前
查看轨道信息
半长轴: 6840.884km
偏心率: 0.0001608
轨道倾角: 53.159°
近地点辐角 95.755°
升交点赤经 188.742°
平近点角 264.363°
近地点: 461.646km
远地点: 463.848km
周期: 93.849分钟
每日圈数: 15.343854
Detailed Information
固有亮度:
5
最大亮度:
2.5
卫星平台:
Starlink V1.0
覆盖范围:
全球
运营商:
太空探索技术公司
运营商所在国:
美国
制造商(研发单位):
太空探索技术公司
制造商所在国:
美国
使用方式:
暂无
Satellite Introduction
Starlink 计划是 SpaceX 推出的全球卫星互联网项目,通过发射低轨道卫星,为全球尤其是偏远地区提供高速、低延迟的互联网服务。自 2019 年起,Starlink 已部署数千颗卫星,旨在缩小全球数字鸿沟,推动互联网普及。该项目还为军事、航空等行业提供通信支持,带来广泛经济效益。
2D Orbit Map
3D Orbit Map
Orbit Altitude Analysis Chart
Orbit Inclination Analysis Chart
Orbit Comprehensive Analysis Chart
View Comprehensive Chart
Conjunction Data List
Event ID Objects TCA Miss Dist (km) Collision Risk Probability Collision Risk Index (CRI) Action
CDM_260907-040706-670306-925821
2026-09-07T
04:07:52+0000
1.760 km
极远距离
3.634729E-6 低风险 0.46
CDM_260915-140605-318306-925821
2026-09-15T
14:06:50+0000
2.431 km
极远距离
1.644234E-6 低风险 0.39
CDM_260907-094606-454006-925823
ARCSTONE (64540)
2026-09-07T
09:46:17+0000
2.672 km
极远距离
1.546497E-6 低风险 0.39
CDM_260907-103306-454006-925821
ARCSTONE (64540)
2026-09-07T
10:33:13+0000
2.952 km
极远距离
1.34725E-6 低风险 0.38
Miss Distance Evolution Trend with All Objects
Collision Probability Evolution Trend with All Objects